Theta_e
311 310 310 311 309 310 312 312 312 311 312 314 312 310 310 310 311 310 310 314 315 315 313 316 317 317 317 317 317 317 316 316 315 315 315 317 317 316 315 314 313 313 313 316
310 310 311 312 312 312 312 311 312 312 312 315 313 313 312 313 313 311 311 312 315 313 312 314 316 317 317 317 317 316 315 315 314 313 314 314 313 314 314 313 314 314 313 315
311 313 314 314 314 314 312 311 312 313 314 314 314 313 313 312 311 312 311 312 315 314 314 313 314 316 316 316 316 315 314 313 312 312 311 311 310 310 310 311 311 312 314 313
311 311 312 313 313 313 313 312 313 315 314 313 313 313 312 313 313 312 312 310 314 313 312 311 313 314 315 315 314 313 313 311 311 311 310 310 310 310 310 309 310 311 313 314
313 312 312 312 313 313 313 313 314 314 312 313 313 313 311 311 313 312 311 310 313 313 312 312 311 314 314 314 313 312 311 311 310 310 310 309 309 308 308 308 309 308 309 311
311 310 311 310 313 314 313 313 313 312 310 313 312 312 310 311 315 317 315 313 312 312 311 310 313 313 312 312 311 311 311 310 310 309 308 308 307 306 306 307 307 308 310 312
312 312 311 311 313 313 311 310 312 312 317 314 315 313 310 313 318 318 315 313 312 311 310 310 310 309 310 310 310 310 310 309 309 308 307 307 306 306 306 306 307 308 309 308
313 314 313 313 312 312 310 310 314 314 321 325 318 321 319 319 316 314 314 313 312 311 310 310 310 310 309 310 310 309 309 308 307 307 307 306 305 305 305 305 306 306 307 307
312 313 313 313 313 312 312 312 311 316 318 317 318 316 318 320 317 316 314 314 313 312 311 310 309 309 308 309 309 309 308 307 307 307 307 306 305 305 305 305 305 305 306 306
313 314 313 315 314 313 312 313 316 314 322 322 318 318 317 321 320 318 316 315 314 312 311 309 307 308 308 309 309 308 307 307 307 307 306 305 305 304 304 304 304 305 305 305
312 312 314 316 314 314 314 315 316 316 315 319 320 319 315 318 318 318 315 314 313 312 310 308 306 307 308 308 307 307 308 307 307 307 306 305 304 304 304 304 304 304 305 305
312 312 315 315 315 315 313 313 317 320 319 317 316 320 314 317 316 316 315 314 312 311 309 306 305 306 307 307 307 308 308 307 306 305 304 303 303 303 303 303 303 303 303 304
319 315 313 314 314 315 316 313 314 313 312 318 319 319 316 315 317 314 313 313 313 310 306 305 305 305 306 307 308 307 307 306 305 303 303 302 302 302 302 303 304 303 303 303
315 319 318 319 315 315 318 318 313 313 313 317 317 317 318 317 316 315 313 313 312 309 308 306 306 305 306 307 306 306 306 304 303 302 302 302 303 303 303 302 302 303 303 303
311 315 314 314 315 314 315 318 317 314 315 315 316 315 315 315 316 317 315 312 312 310 309 307 306 305 305 305 306 305 303 303 302 301 301 302 302 302 302 302 303 303 303 303
310 311 314 314 317 317 316 318 318 317 316 315 316 316 315 314 316 315 315 313 312 311 310 308 307 306 306 305 304 303 302 302 302 301 301 302 302 302 302 302 302 302 303 304
309 310 313 315 316 316 320 317 316 317 314 315 316 316 315 315 314 313 313 313 312 311 310 308 307 305 305 304 302 302 302 302 301 301 301 301 301 302 302 302 302 302 303 303
308 309 310 310 309 316 317 317 317 317 316 314 313 313 312 313 314 313 312 313 311 310 309 308 305 305 304 302 302 301 301 301 301 301 300 301 301 301 301 302 302 302 303 303
310 309 307 310 309 311 310 315 316 317 317 316 315 314 314 314 313 314 311 310 309 308 308 306 307 304 302 302 301 301 300 300 301 300 300 300 300 301 301 302 303 304 304 304
309 309 309 305 310 307 310 313 314 315 318 315 314 315 314 314 316 314 311 310 309 308 307 306 304 303 302 301 301 300 301 300 300 300 300 300 300 301 302 303 304 306 307 306
307 308 311 310 309 309 312 315 316 322 318 315 315 315 315 315 312 310 311 310 308 307 306 305 303 302 302 301 301 300 300 299 300 299 300 300 301 302 302 304 307 311 310 309
306 306 308 309 313 312 312 314 319 316 314 316 316 315 315 315 313 312 310 309 307 305 304 303 302 301 301 301 300 300 299 300 300 299 299 300 302 302 303 304 307 307 306 309
310 310 308 310 312 309 309 314 310 311 313 313 314 314 314 314 313 311 308 307 305 304 303 303 301 300 301 300 300 300 299 299 299 299 300 300 301 301 302 303 304 305 305 304
307 306 309 310 308 309 310 311 311 316 314 313 314 314 315 314 312 309 307 304 303 303 302 302 300 299 299 300 300 300 299 299 299 299 299 300 300 301 301 301 302 302 302 301
303 306 305 307 306 307 310 309 308 316 317 313 313 313 314 313 310 308 304 303 302 301 302 301 300 299 299 300 299 299 299 299 299 299 299 298 299 299 299 299 300 300 300 299
303 302 306 305 305 308 309 309 309 310 317 317 314 312 312 310 308 305 303 302 301 301 301 300 300 299 299 299 299 299 299 299 299 299 298 297 297 297 297 297 297 298 298 299
Wind_Speed
3 4 6 8 6 4 2 4 5 4 3 1 5 8 10 8 5 8 8 10 10 11 7 20 19 17 14 10 7 4 3 7 11 13 16 17 17 20 20 20 22 23 22 21
5 4 10 5 5 6 6 7 5 5 3 2 5 9 9 8 7 8 10 12 14 7 8 12 18 15 13 13 9 5 1 4 8 12 12 15 20 23 23 25 25 24 23 21
5 7 2 4 4 6 6 5 4 6 4 3 4 8 6 6 6 8 8 13 17 18 14 9 11 15 14 12 10 8 2 4 7 10 14 18 20 23 26 25 25 25 24 24
5 2 0 3 4 7 7 6 4 5 3 4 2 6 5 5 8 9 10 9 16 12 8 7 9 13 13 12 10 6 3 2 6 11 15 19 21 23 23 27 28 27 25 26
8 4 2 1 5 5 8 4 4 3 3 2 3 2 7 4 7 12 11 12 15 15 13 10 10 17 14 13 10 7 4 2 5 11 14 18 22 26 31 32 29 31 31 29
8 1 4 7 5 4 6 5 7 5 3 2 7 8 6 5 4 6 3 6 13 14 10 9 17 16 16 12 10 7 1 5 9 12 16 18 24 27 29 27 29 27 25 23
2 4 4 5 3 3 6 6 3 4 2 6 2 2 9 7 13 10 7 8 10 10 10 9 9 13 14 13 10 3 3 7 10 13 16 20 25 28 29 30 26 26 25 26
4 8 6 4 7 8 7 9 6 6 4 4 3 6 5 4 7 5 10 10 9 9 8 9 9 13 14 11 6 3 6 10 12 14 18 23 25 25 28 28 28 29 28 29
5 7 5 4 5 9 5 4 5 6 2 2 4 7 5 1 5 6 9 8 8 9 9 8 8 12 12 10 6 7 10 12 14 16 22 27 27 28 29 30 32 30 31 31
6 8 9 5 4 2 7 8 4 2 4 5 5 5 6 6 6 5 6 9 9 6 7 7 6 11 11 7 7 9 11 14 15 20 27 27 32 32 31 31 32 33 34 35
3 5 4 4 6 9 2 2 4 5 5 6 2 6 6 9 9 10 9 9 9 7 8 8 7 11 9 9 11 9 12 13 18 25 28 31 30 30 30 30 32 33 34 35
5 4 6 10 4 4 6 11 8 5 6 3 3 9 5 8 10 9 10 6 6 8 10 7 8 10 10 10 7 10 11 15 21 26 29 29 28 29 29 31 33 35 35 36
7 4 5 8 6 3 5 5 5 5 4 8 6 10 3 4 5 8 8 8 6 6 7 6 5 8 7 5 9 10 12 17 26 30 28 27 26 27 28 31 33 35 37 37
2 6 11 11 8 3 5 6 7 7 4 11 11 19 6 8 10 9 8 7 8 8 8 6 6 4 6 9 9 9 15 22 27 27 25 25 25 28 30 34 35 37 37 36
4 5 4 15 20 15 16 8 14 10 19 10 23 16 14 10 11 14 7 7 8 8 8 7 6 6 7 7 6 11 18 23 26 25 23 25 27 29 32 34 35 36 37 37
2 5 5 17 16 12 18 15 11 18 22 13 17 13 6 12 14 5 9 10 10 7 7 8 7 5 5 4 7 14 21 24 23 22 25 27 27 29 32 34 36 38 39 39
7 4 1 9 9 16 14 24 23 16 6 12 12 15 9 8 11 13 10 12 11 8 8 8 6 5 6 4 8 16 22 23 23 23 26 27 28 31 32 35 36 38 39 38
9 6 4 6 8 15 8 8 19 20 18 11 10 9 8 11 10 6 7 10 9 8 8 6 5 7 7 4 11 17 22 23 22 24 26 28 29 32 35 35 37 39 38 36
16 9 6 7 12 15 21 9 9 14 25 19 12 15 9 5 4 2 6 6 8 8 6 7 8 10 5 5 13 17 19 20 21 23 25 29 31 33 36 37 38 39 36 33
14 16 12 3 10 9 11 9 8 4 14 16 15 18 9 9 6 5 9 7 7 7 9 11 12 8 0 8 13 16 20 21 20 23 28 31 33 34 36 38 38 39 34 31
4 4 17 14 12 7 8 7 4 11 13 9 9 7 14 10 5 5 10 7 7 10 13 15 11 5 2 8 13 18 20 18 22 25 28 30 33 32 33 33 33 30 28 27
5 4 6 6 10 19 12 14 11 14 12 4 7 12 11 3 5 8 10 8 8 8 13 12 9 4 1 8 14 18 18 24 22 25 27 29 30 31 29 29 28 29 27 21
5 4 2 2 4 9 10 12 12 14 9 7 14 10 15 13 9 10 8 8 7 9 12 11 9 4 1 8 14 17 23 24 23 24 25 27 29 29 27 26 26 26 26 24
4 5 3 2 5 8 14 13 6 14 12 7 8 12 12 13 10 8 7 7 6 9 10 12 8 2 3 9 14 17 22 23 22 22 24 25 25 27 26 26 23 23 23 23
5 5 4 8 13 12 10 9 14 17 18 7 8 8 11 12 10 8 7 7 6 9 12 11 6 2 4 11 15 18 21 22 21 21 21 22 20 22 25 24 23 22 21 25
7 12 6 8 12 5 6 7 17 20 15 6 9 6 6 10 12 7 7 7 8 10 15 11 6 3 6 11 15 19 21 23 20 18 19 21 19 20 22 23 27 24 24 25
Wind_Direction
12 72 227 230 209 183 224 221 231 259 258 182 238 245 259 262 247 256 228 197 195 200 193 176 173 162 146 127 114 94 6 348 343 341 337 330 326 321 318 314 315 318 317 311
15 258 246 246 194 221 247 228 246 289 272 166 272 253 244 250 247 211 206 202 199 176 183 185 175 161 151 138 133 144 211 344 338 331 328 323 320 316 311 312 310 311 312 306
170 242 30 216 260 230 222 183 203 217 338 332 326 275 230 246 244 252 230 198 197 186 182 178 171 156 146 144 159 174 188 318 335 327 321 319 315 311 310 310 306 305 302 302
220 277 249 353 261 185 223 214 183 147 106 236 34 283 258 229 236 239 239 200 195 181 164 160 161 153 160 166 176 174 224 305 326 318 321 324 320 312 305 307 308 305 300 295
243 259 182 338 243 178 227 128 147 134 129 99 315 290 266 288 259 255 238 209 194 179 160 156 162 162 174 179 185 188 198 357 323 311 315 315 311 308 308 308 303 303 298 294
242 238 199 210 209 138 139 83 47 46 86 315 214 181 282 257 246 311 305 178 161 152 144 149 164 165 178 183 183 185 197 315 308 308 313 312 310 310 308 302 300 297 296 293
284 230 245 174 192 71 84 76 329 332 350 230 173 185 242 284 296 272 234 149 132 129 142 153 166 184 182 184 183 173 300 293 292 301 307 317 313 308 302 300 295 293 294 294
183 293 186 185 180 185 190 161 166 219 205 255 310 238 254 294 316 329 123 124 123 147 164 177 189 187 184 181 179 227 268 277 288 303 307 313 313 305 300 294 294 291 288 287
195 258 274 190 166 142 185 167 191 110 2 51 240 291 308 280 7 74 104 124 155 178 192 185 187 180 176 177 200 252 261 282 300 304 308 312 313 306 299 301 299 288 284 283
242 283 212 219 104 62 166 162 77 4 187 238 271 265 234 217 201 194 169 182 197 195 177 191 175 176 174 187 228 246 274 286 297 307 315 311 311 305 303 298 292 287 286 286
206 177 271 134 201 166 147 172 68 126 151 187 225 256 214 205 196 197 208 212 209 202 191 193 184 174 179 207 234 260 282 295 307 315 315 309 305 303 301 295 291 289 290 289
323 223 217 220 219 241 217 187 156 148 216 232 175 256 227 216 206 191 214 223 229 203 197 177 163 173 202 230 253 282 294 305 312 315 311 305 303 301 302 298 293 292 290 289
355 327 336 329 339 311 208 187 151 116 86 198 181 257 259 221 213 221 226 243 219 188 159 156 176 210 234 258 281 278 297 311 315 318 311 307 305 303 300 297 294 292 289 286
298 228 217 244 242 186 208 207 183 151 137 237 224 246 209 197 210 237 234 230 192 184 173 184 211 246 253 259 262 288 307 314 322 318 307 304 302 301 296 295 293 291 289 285
106 264 260 270 267 245 229 213 215 196 228 202 251 229 226 219 220 229 237 185 181 189 187 199 221 233 247 243 271 300 310 321 327 314 304 299 299 300 300 296 294 293 291 287
234 262 334 294 280 267 251 224 204 211 226 234 253 262 185 228 244 197 206 176 187 186 196 211 225 240 242 232 292 307 317 322 322 310 301 302 303 301 298 297 297 294 290 287
204 225 270 276 336 325 260 234 232 231 200 196 222 239 189 226 224 226 204 183 179 184 197 216 228 235 200 237 300 314 321 324 321 307 308 309 309 304 301 298 294 289 287 287
223 184 170 262 310 260 269 232 240 239 240 221 253 254 206 225 224 180 169 172 176 185 207 216 208 190 197 267 325 330 334 330 315 313 312 313 313 308 304 301 295 291 290 287
214 216 223 226 245 291 306 270 225 224 249 247 233 250 215 130 66 316 181 171 179 191 206 202 206 180 193 332 341 342 340 324 316 317 318 319 315 310 306 301 297 293 290 286
226 224 217 208 224 224 247 252 258 137 252 228 226 241 160 146 169 230 177 172 194 196 186 179 168 171 324 347 344 337 333 325 318 325 320 317 315 309 305 302 301 298 290 283
290 217 227 225 243 277 247 243 211 195 246 165 177 172 164 179 199 178 151 180 192 185 175 167 167 158 357 342 342 338 330 317 323 327 320 318 315 312 310 312 319 328 318 291
264 225 219 221 233 240 356 227 199 231 279 154 153 157 158 152 163 147 166 180 166 150 153 162 154 161 343 349 341 335 320 326 326 326 322 317 319 319 318 325 323 330 335 329
247 250 191 213 262 318 316 290 285 301 247 190 166 171 163 152 166 172 177 162 163 158 156 164 162 164 334 347 343 334 327 330 328 325 322 320 323 324 331 333 331 333 337 337
229 207 226 299 238 249 300 293 274 307 288 162 166 156 151 157 163 167 148 148 142 149 157 161 156 163 329 341 343 341 337 332 330 327 324 327 326 330 335 339 338 336 335 338
213 175 246 259 271 272 243 334 318 317 306 219 153 137 165 151 156 152 148 149 146 152 158 158 153 120 342 343 342 347 345 341 335 331 329 329 328 335 339 338 328 327 330 340
217 238 220 246 263 213 269 312 312 299 278 263 141 104 135 145 149 137 137 145 150 148 150 143 138 106 4 349 352 354 351 345 332 335 339 335 337 340 340 338 333 341 342 348